Weather Roundup
Issued by NWS Springfield, MO

Home | Current Version | Previous Version | Text Only | Print | Product List | Glossary On
Versions: 1 2 3 4 5 6 7 8 9 10 11 12 13 14 15 16 17 18 19 20 21 22 23 24 25 26 27 28 29 30 31 32 33 34 35 36 37 38 39 40 41 42 43 44 45 46 47 48 49 50
802
NZUS99 KSGF 140307
HRRSGF

HOURLY WEATHER
NATIONAL WEATHER SERVICE SPRINGFIELD MO
900 PM CST SAT FEB 13 2016

......SGF CWA......

CITY           SKY/WX    TMP DP  RH WIND       PRES   REMARKS
SPRINGFIELD    CLOUDY    32  -2  23 SE22      30.20F WCI  19
JOPLIN         CLOUDY    35   7  31 E8        30.17F WCI  29
WEST PLAINS    CLOUDY    24   2  38 SE10      30.33F WCI  14
ROLLA          CLOUDY    22   2  42 E14       30.31F WCI   9
OSAGE BEACH    CLOUDY    25   1  36 E10       30.31F WCI  15
BRANSON        CLOUDY    32   1  27 SE15      30.24F WCI  22

......SURROUNDING SGF CWA......

CITY           SKY/WX    TMP DP  RH WIND       PRES   REMARKS
CHANUTE        CLOUDY    30   7  37 E10       30.19F WCI  21
PARSONS        CLOUDY    32  11  41 NE8       30.19S WCI  25
COFFEYVILLE    CLOUDY    39  15  37 NE6       30.18R WCI  35
EMPORIA        CLOUDY    22   8  55 E14       30.18F WCI   9
GROVE OK       CLOUDY    43  19  39 SE12G17   30.17S
ROGERS AR      MOCLDY    37  12  35 SE16G22   30.16F WCI  28
SILOAM SPRINGS CLOUDY    37  10  32 SE13G24   30.17F WCI  29
HARRISON AR    CLOUDY    31   4  31 SE18      30.24F WCI  19
NEAR YELLVILLE CLOUDY    28   3  34 SE14      30.30F WCI  17

......KANSAS AND MISSOURI......

CITY           SKY/WX    TMP DP  RH WIND       PRES   REMARKS
KANSAS CTY INT CLOUDY    21   4  47 E14       30.26F WCI   8
DOWNTOWN KC    CLOUDY    23   3  42 E13       30.28F WCI  11
COLUMBIA       CLOUDY    21   2  43 SE13      30.34F WCI   9
SEDALIA        CLOUDY    23   2  40 E16       30.30F WCI  10
ST JOSEPH      CLOUDY    20   0  41 SE9       30.30F WCI   9
ST LOUIS       CLOUDY    23   5  46 E13       30.43F WCI  11
SPIRIT OF STL  CLOUDY    23   3  42 SE6       30.43F WCI  16
KIRKSVILLE     CLOUDY    17   6  62 E10       30.36F WCI   5
WICHITA        CLOUDY    36   9  32 E14       30.10F WCI  27
TOPEKA         CLOUDY    24   2  38 E10       30.24F WCI  14
OLATHE         CLOUDY    21   2  43 E12       30.24F WCI   9

......TENNESSEE......

CITY           SKY/WX    TMP DP  RH WIND       PRES   REMARKS
MEMPHIS        PTCLDY    32   9  38 NE9       30.39F WCI  24
NASHVILLE      CLOUDY    27   4  37 NE8       30.46F WCI  19

......ARKANSAS.......

CITY           SKY/WX    TMP DP  RH WIND       PRES   REMARKS
FAYETTEVILLE   CLOUDY    36  13  38 SE14      30.19F WCI  27
FT SMITH       CLOUDY    41  11  29 E13G20    30.25S
LITTLE ROCK    PTCLDY    32  14  47 E8        30.39F WCI  25

......OKLAHOMA.......

CITY           SKY/WX    TMP DP  RH WIND       PRES   REMARKS
TULSA          CLOUDY    45  21  38 SE10      30.15R
MCALESTER      CLOUDY    48  28  46 SE9G20    30.14F
OKLAHOMA CITY  PTCLDY    49  35  58 SE17      30.04F

......IOWA............

CITY           SKY/WX    TMP DP  RH WIND       PRES   REMARKS
DES MOINES     LGT SNOW  14   8  77 SE12      30.35F WCI   0
QUAD CITIES    CLOUDY    17  -2  43 E9        30.45F WCI   6

......ILLINOIS........

CITY           SKY/WX    TMP DP  RH WIND       PRES   REMARKS
QUINCY         CLOUDY    18   6  59 E13       30.42F WCI   5
CHICAGO        CLOUDY    12  -4  48 CALM      30.48S




USA.gov is the U.S. government's official web portal to all federal, state and local government web resources and services.